Regional Weather Roundup
Issued by NWS

Home | Current Version | Previous Version | Graphics & Text | Print | Product List | Glossary On
Versions: 1 2 3 4 5 6 7 8 9 10 11 12 13 14 15 16 17 18 19 20 21 22 23 24 25 26 27 28 29 30 31 32 33 34 35 36 37 38 39 40 41 42 43 44 45 46 47 48 49 50
000
ASUS45 KABQ 301801
RWRNM
NEW MEXICO REGIONAL WEATHER ROUNDUP
NATIONAL WEATHER SERVICE ALBUQUERQUE NM
1200 PM MDT SAT MAY 30 2015

NOTE: "FAIR" MEANS FEW OR NO CLOUDS BELOW 12,000 FEET AGL WITH NO
       SIGNIFICANT WEATHER OR OBSTRUCTIONS TO VISION.

      THIS PRODUCT IS RELEASED AS TWO VERSIONS.  ONE VERSION NEAR
      THE TOP OF THE HOUR CONTAINING PRELIMINARY DATA FROM ALBUQUERQUE
      AND OTHER STATIONS.  A FINAL VERSION WITH ADDITIONAL DATA IS
      ISSUED ABOUT 10 MINUTES AFTER THE HOUR.

NMZ501-503-504-510>518-301900-
NORTHWEST PLATEAU/NORTHCENTRAL MOUNTAINS

CITY           SKY/WX    TMP DP  RH WIND       PRES   REMARKS
FARMINGTON     SUNNY     74  32  21 CALM      30.25F
6HR MIN TEMP:  42; 6HR MAX TEMP:  74;

SANTA FE       MOSUNNY   67  42  40 S13       30.34F
6HR MIN TEMP:  50; 6HR MAX TEMP:  67;

TAOS           PTSUNNY   63  39  42 S7G17     30.37F

$$
NMZ402-403-502-505>509-301900-
WESTCENTRAL MOUNTAINS/SOUTHWEST MOUNTAINS

CITY           SKY/WX    TMP DP  RH WIND       PRES   REMARKS
GALLUP         SUNNY     74  29  19 NE7       30.31S
6HR MIN TEMP:  41; 6HR MAX TEMP:  75;

GRANTS         SUNNY     73  39  29 E10       30.34S
SILVER CITY      N/A     81  39  22 S9G18     30.25F

$$
NMZ407-409-411-412-301900-
SOUTHERN DESERTS

CITY           SKY/WX    TMP DP  RH WIND       PRES   REMARKS
LORDSBURG      FAIR      84  45  24 SE14G22   30.17S
DEMING         SUNNY     82  49  31 E13G23    30.18F
6HR MIN TEMP:  68; 6HR MAX TEMP:  83;

ALAMOGORDO     SUNNY     79  45  29 NE3       30.19F
T OR C         SUNNY     76  45  33 VRB5      30.22F
6HR MIN TEMP:  63; 6HR MAX TEMP:  78;


$$
NMZ519>523-301900-
CENTRAL VALLEYS/CENTRAL HIGHLANDS

CITY           SKY/WX    TMP DP  RH WIND       PRES   REMARKS
ALBUQUERQUE    MOSUNNY   71  42  35 CALM      30.29S
6HR MIN TEMP:  59; 6HR MAX TEMP:  72;

DOUBLE EAGLE   MOSUNNY   68  45  42 S9        30.33S
MORIARTY ARPT  MOCLDY    67  44  43 SE13      30.36F
6HR MIN TEMP:  46; 6HR MAX TEMP:  67;

CLINES CORNERS MOSUNNY   61  44  53 S8        30.37F
6HR MIN TEMP:  47; 6HR MAX TEMP:  64;

BELEN          FAIR      74  42  31 NW7       30.28F
6HR MIN TEMP:  53; 6HR MAX TEMP:  74;

SOCORRO        NOT AVBL

$$
NMZ524>526-539-540-301900-
SOUTHCENTRAL MOUNTAINS

CITY           SKY/WX    TMP DP  RH WIND       PRES   REMARKS
RUIDOSO        NOT AVBL

$$
NMZ527>531-301900-
NORTHEAST HIGHLANDS/NORTHEAST PLAINS

CITY           SKY/WX    TMP DP  RH WIND       PRES   REMARKS
LAS VEGAS      MOSUNNY   63  45  51 S15G23    30.36F
6HR MIN TEMP:  44; 6HR MAX TEMP:  64;

RATON          PTSUNNY   64  46  52 S14       30.32F
6HR MIN TEMP:  44; 6HR MAX TEMP:  65;

CLAYTON        PTSUNNY   62  50  64 CALM      30.32F
6HR MIN TEMP:  50; 6HR MAX TEMP:  62;


$$
NMZ532>537-301900-
EASTCENTRAL PLAINS

CITY           SKY/WX    TMP DP  RH WIND       PRES   REMARKS
TUCUMCARI      PTSUNNY   63  50  62 NE6       30.29F
6HR MIN TEMP:  55; 6HR MAX TEMP:  63;

CANNON AFB     NOT AVBL
CLOVIS AIRPORT SUNNY     64  54  68 NE17      30.27F

$$
NMZ028-029-538-301900-
SOUTHEAST PLAINS

CITY           SKY/WX    TMP DP  RH WIND       PRES   REMARKS
ROSWELL        PTSUNNY   70  54  56 N6        30.25F
6HR MIN TEMP:  59; 6HR MAX TEMP:  70;

ARTESIA          N/A     70  57  64 N10G18    30.25F
CARLSBAD       MOSUNNY   75  53  46 CALM      30.20F
6HR MIN TEMP:  61; 6HR MAX TEMP:  76;

HOBBS          PTSUNNY   68  57  68 N14       30.25F


$$


USA.gov is the U.S. government's official web portal to all federal, state and local government web resources and services.